FW5642 Weather Reports


time (UTC)temp
F
wind
direction
speed
knots
gust
knots
rain 1hr
in
rain 24hr
in
rain mn
in
humidity
%
barometer
mb
20260902074534 59 299 4.3 11.3 0.00 0.02 0.00 73 1012.4
20260902073035 59 297 3.5 7.0 0.00 0.02 0.00 72 1012.6
20260902071536 60 292 3.5 11.3 0.00 0.02 0.00 71 1012.7
20260902070033 60 291 4.3 13.0 0.00 0.02 0.00 71 1012.7
20260902064537 61 279 5.2 11.3 0.00 0.02 0.02 71 1012.4
20260902063035 60 291 6.1 13.0 0.00 0.02 0.02 72 1012.6
20260902061607 60 282 6.1 13.9 0.01 0.02 0.02 74 1012.2
20260902060036 59 278 6.1 12.2 0.02 0.02 0.02 76 1012.2
20260902054534 59 282 4.3 12.2 0.02 0.02 0.02 77 1012.6
20260902053030 59 287 4.3 12.2 0.02 0.02 0.01 73 1012.2
20260902051530 62 288 5.2 13.0 0.01 0.01 0.00 66 1011.9
20260902043030 64 298 5.2 8.7 0.00 0.00 0.00 62 1011.7
20260902041641 64 291 5.2 13.0 0.00 0.00 0.00 62 1011.6
20260902040143 64 292 5.2 19.1 0.00 0.00 0.00 62 1011.6
20260902034535 64 299 4.3 12.2 0.00 0.00 0.00 62 1011.4
20260902033030 64 300 5.2 11.3 0.00 0.00 0.00 61 1011.0
20260902031536 64 298 6.1 11.3 0.00 0.00 0.00 61 1011.0
20260902024536 65 296 4.3 9.6 0.00 0.00 0.00 60 1011.2
20260902023030 65 291 4.3 11.3 0.00 0.00 0.00 59 1010.9
20260902021628 66 287 4.3 11.3 0.00 0.00 0.00 57 1010.7
20260902020035 66 291 7.0 14.8 0.00 0.00 0.00 56 1010.3
20260902014532 67 282 7.8 20.0 0.00 0.00 0.00 56 1010.1
20260902013150 67 277 7.0 17.4 0.00 0.00 0.00 56 1009.9
20260902011534 67 281 7.0 17.4 0.00 0.00 0.00 57 1009.7
20260902010034 67 292 7.0 19.1 0.00 0.00 0.00 56 1009.6
20260902004535 69 288 8.7 19.1 0.00 0.00 0.00 55 1009.6
20260902000034 68 279 8.7 20.9 0.00 0.00 0.00 56 1009.6
20260901234610 68 281 8.7 20.0 0.00 0.00 0.00 55 1009.7
20260901233034 69 277 8.7 17.4 0.00 0.00 0.00 54 1009.7
20260901230035 69 284 7.0 16.5 0.00 0.00 0.00 54 1009.8
20260901224606 70 277 7.8 17.4 0.00 0.00 0.00 50 1009.7
20260901223034 74 277 7.8 20.9 0.00 0.00 0.00 48 1009.6
20260901221641 74 276 6.1 15.6 0.00 0.00 0.00 49 1009.5
20260901220031 74 282 7.0 18.2 0.00 0.00 0.00 49 1009.4
20260901214531 74 282 7.8 18.2 0.00 0.00 0.00 49 1009.5
20260901213035 73 287 6.1 18.2 0.00 0.00 0.00 51 1009.5
20260901211534 72 282 7.0 15.6 0.00 0.00 0.00 51 1009.5
20260901204640 72 286 7.0 13.9 0.00 0.00 0.00 52 1009.8
20260901203031 73 293 7.8 19.1 0.00 0.00 0.00 52 1009.8
20260901201535 73 302 7.0 14.8 0.00 0.00 0.00 51 1009.9
20260901200031 73 283 4.3 12.2 0.00 0.00 0.00 52 1010.0
20260901194609 73 287 7.0 13.9 0.00 0.00 0.00 52 1010.2
20260901193031 73 296 5.2 13.0 0.00 0.00 0.00 52 1010.4
20260901191534 73 295 5.2 12.2 0.00 0.00 0.00 53 1010.7
20260901190144 72 295 6.1 13.0 0.00 0.00 0.00 54 1010.8
20260901184648 72 301 5.2 13.0 0.00 0.00 0.00 55 1010.9
20260901183033 70 284 4.3 11.3 0.00 0.00 0.00 58 1011.1
20260901181616 70 288 4.3 11.3 0.00 0.00 0.00 58 1011.2
20260901180108 70 289 3.5 9.6 0.00 0.00 0.00 59 1011.3
20260901174537 68 298 4.3 11.3 0.00 0.00 0.00 61 1011.3
20260901173036 66 306 6.1 12.2 0.00 0.00 0.00 64 1011.1
20260901164532 64 296 5.2 13.0 0.00 0.00 0.00 66 1011.3
20260901161528 63 299 6.1 14.8 0.00 0.00 0.00 67 1011.2
20260901160031 62 285 4.3 12.2 0.00 0.00 0.00 67 1011.3
20260901154612 63 289 5.2 11.3 0.00 0.00 0.00 67 1011.3
20260901153036 63 280 4.3 12.2 0.00 0.00 0.00 67 1011.3
20260901151645 62 283 4.3 10.4 0.00 0.00 0.00 67 1011.1
20260901150037 62 286 5.2 13.9 0.00 0.00 0.00 67 1010.9
20260901144534 62 298 4.3 10.4 0.00 0.00 0.00 68 1011.0
20260901143031 62 308 4.3 9.6 0.00 0.00 0.00 69 1010.9
20260901141608 61 302 5.2 12.2 0.00 0.00 0.00 70 1010.8
20260901140038 60 311 3.5 10.4 0.00 0.00 0.00 70 1010.6
20260901134536 61 330 2.6 7.0 0.00 0.00 0.00 70 1010.4
20260901133033 61 345 1.7 4.3 0.00 0.00 0.00 68 1010.3
20260901131607 62 315 0.9 5.2 0.00 0.00 0.00 67 1010.2
20260901130030 62 307 1.7 7.0 0.00 0.00 0.00 66 1010.1
20260901124532 63 297 1.7 7.0 0.00 0.00 0.00 65 1009.9
20260901123109 63 296 4.3 11.3 0.00 0.00 0.00 65 1009.9
20260901121538 63 305 3.5 7.8 0.00 0.00 0.00 64 1009.8
20260901120034 63 311 2.6 7.0 0.00 0.00 0.00 63 1009.8
20260901114607 64 320 2.6 7.0 0.00 0.00 0.00 62 1009.9
20260901113034 64 314 2.6 8.7 0.00 0.00 0.00 61 1009.7
20260901111609 64 312 3.5 7.8 0.00 0.00 0.00 60 1009.6
20260901110036 65 312 3.5 7.0 0.00 0.00 0.00 59 1009.7
20260901104535 65 344 2.6 6.1 0.00 0.00 0.00 58 1009.6
20260901101535 66 318 3.5 7.0 0.00 0.00 0.00 57 1009.6
20260901100035 66 333 2.6 7.0 0.00 0.00 0.00 57 1009.7
20260901094536 66 336 3.5 8.7 0.00 0.00 0.00 56 1009.7
20260901091607 64 340 2.6 7.8 0.00 0.00 0.00 57 1009.6
20260901090037 65 347 0.0 3.5 0.00 0.00 0.00 55 1009.6
20260901083110 63 291 0.9 5.2 0.00 0.00 0.00 58 1009.9
20260901081531 60 262 0.0 7.0 0.00 0.00 0.00 60 1009.9
20260901080034 58 49 0.0 1.7 0.00 0.00 0.00 63 1009.9